FW6368 Weather Reports


Display with metric or nautical units.
time (UTC)temp
F
wind
direction
speed
MPH
gust
MPH
rain 1hr
in
rain 24hr
in
rain mn
in
humidity
%
barometer
mb
20260504173057 82 67 2.0 5.0 0.00 0.00 0.00 54 1016.6
20260504172547 83 72 1.0 5.0 0.00 0.00 0.00 54 1016.8
20260504172048 83 85 1.0 6.0 0.00 0.00 0.00 61 1016.7
20260504171551 82 117 1.0 6.0 0.00 0.00 0.00 55 1016.7
20260504171051 82 107 2.0 7.0 0.00 0.00 0.00 53 1016.8
20260504170547 82 65 2.0 7.0 0.00 0.00 0.00 54 1016.9
20260504151054 78 82 0.0 7.0 0.00 0.00 0.00 62 1017.9
20260504150550 78 0 1.0 7.0 0.00 0.00 0.00 60 1017.9
20260504141052 75 194 1.0 7.0 0.00 0.00 0.00 69 1017.7
20260504140553 75 123 1.0 7.0 0.00 0.00 0.00 70 1017.6
20260504130550 70 29 0.0 5.0 0.00 0.00 0.00 79 1017.3
20260504120104 65 88 0.0 3.0 0.00 0.00 0.00 84 1017.0
20260504110551 62 69 0.0 2.0 0.00 0.00 0.00 87 1016.6
20260504100551 63 69 0.0 3.0 0.00 0.61 0.00 85 1016.4
20260504081554 66 0 0.0 2.0 0.00 0.61 0.00 82 1016.3
20260504081049 66 76 0.0 2.0 0.00 0.61 0.00 82 1016.4
20260504080551 66 0 0.0 3.0 0.00 0.61 0.00 82 1016.5
20260504050551 68 0 0.0 2.0 0.00 0.61 0.00 80 1017.3
20260504045550 68 0 0.0 1.0 0.00 0.61 0.00 80 1017.2
20260504045051 68 0 0.0 2.0 0.00 0.61 0.00 80 1017.1
20260504044555 68 0 0.0 2.0 0.00 0.61 0.00 80 1017.2
20260504044050 69 90 0.0 2.0 0.00 0.61 0.00 80 1017.5
20260504043551 69 0 0.0 2.0 0.00 0.61 0.00 80 1017.6
20260504043059 69 101 0.0 2.0 0.00 0.61 0.00 80 1017.6
20260504042551 69 0 0.0 2.0 0.00 0.61 0.00 80 1017.8
20260504042049 69 0 0.0 1.0 0.00 0.61 0.00 80 1017.8
20260504041557 69 0 0.0 1.0 0.00 0.61 0.00 80 1017.9
20260504041049 69 0 0.0 1.0 0.00 0.61 0.00 80 1017.9
20260504040550 69 0 0.0 1.0 0.00 0.61 0.00 80 1018.0
20260504040131 69 0 0.0 1.0 0.00 0.61 0.00 79 1018.1
20260504035551 69 0 0.0 1.0 0.00 0.61 0.61 79 1018.0
20260504035053 69 0 0.0 1.0 0.00 0.61 0.61 79 1018.0
20260504034601 69 0 0.0 1.0 0.00 0.61 0.61 79 1018.1
20260504034050 69 0 0.0 3.0 0.00 0.61 0.61 78 1018.0
20260504033550 70 0 0.0 3.0 0.00 0.61 0.61 78 1017.9
20260504033051 70 103 0.0 3.0 0.00 0.61 0.61 77 1018.1
20260504032550 70 0 0.0 3.0 0.00 0.61 0.61 77 1017.9
20260504032050 70 90 0.0 3.0 0.00 0.61 0.61 77 1017.8
20260504031600 70 150 1.0 3.0 0.00 0.61 0.61 77 1017.9
20260504031051 70 0 0.0 3.0 0.00 0.61 0.61 77 1017.9
20260504030550 70 0 1.0 3.0 0.00 0.61 0.61 77 1017.8
20260504030054 70 0 0.0 3.0 0.00 0.61 0.61 76 1017.7
20260504025554 71 96 0.0 4.0 0.00 0.61 0.61 76 1017.7
20260504025052 71 98 1.0 4.0 0.00 0.61 0.61 76 1017.7
20260504024604 71 121 0.0 3.0 0.00 0.61 0.61 76 1017.7
20260504024050 71 0 0.0 3.0 0.00 0.61 0.61 75 1017.5
20260504023550 71 341 0.0 3.0 0.00 0.61 0.61 75 1017.4
20260504023057 71 107 0.0 2.0 0.00 0.61 0.61 75 1017.3
20260504022550 72 0 0.0 9.0 0.00 0.61 0.61 74 1017.5
20260504022050 72 0 0.0 9.0 0.00 0.61 0.61 74 1017.4
20260504021553 72 94 0.0 3.0 0.00 0.61 0.61 74 1017.4
20260504021050 72 88 0.0 6.0 0.00 0.61 0.61 74 1017.4
20260504020550 72 0 1.0 6.0 0.00 0.61 0.61 74 1017.4
20260504020107 72 103 0.0 3.0 0.00 0.61 0.61 74 1017.3
20260504015552 72 119 0.0 3.0 0.00 0.61 0.61 74 1017.3
20260504015052 72 126 0.0 3.0 0.00 0.61 0.61 73 1017.1
20260504014553 72 0 0.0 3.0 0.00 0.61 0.61 72 1017.3
20260504014049 72 68 0.0 3.0 0.00 0.61 0.61 72 1017.1
20260504013550 72 51 0.0 2.0 0.00 0.61 0.61 71 1017.0
20260504013053 72 0 0.0 2.0 0.00 0.61 0.61 71 1016.9
20260504012550 72 0 0.0 3.0 0.00 0.61 0.61 70 1016.8
20260504012051 72 0 0.0 4.0 0.00 0.61 0.61 70 1016.8
20260504011552 72 0 1.0 4.0 0.00 0.61 0.61 70 1016.7
20260504011050 72 0 0.0 2.0 0.00 0.61 0.61 70 1016.6
20260504010550 72 0 0.0 2.0 0.00 0.61 0.61 70 1016.6
20260504010056 72 0 0.0 2.0 0.00 0.61 0.61 69 1016.4
20260504005550 72 36 0.0 2.0 0.00 0.61 0.61 69 1016.3
20260504005052 73 0 0.0 3.0 0.00 0.61 0.61 69 1016.3
20260504004555 73 37 0.0 3.0 0.00 0.61 0.61 69 1016.2
20260504004051 73 0 0.0 3.0 0.00 0.61 0.61 68 1016.3
20260504003550 73 0 0.0 3.0 0.00 0.61 0.61 68 1016.2
20260504003053 73 52 0.0 3.0 0.00 0.61 0.61 68 1016.2
20260504002550 74 51 0.0 3.0 0.00 0.61 0.61 67 1016.0
20260504002051 74 52 0.0 3.0 0.00 0.61 0.61 66 1016.0
20260504001555 74 0 0.0 1.0 0.00 0.61 0.61 65 1015.9
20260504001051 74 0 0.0 1.0 0.00 0.61 0.61 64 1015.9
20260504000550 75 0 0.0 1.0 0.00 0.61 0.61 65 1015.6
20260504000054 75 0 0.0 1.0 0.00 0.61 0.61 63 1015.6
20260503235550 75 0 0.0 1.0 0.00 0.61 0.61 63 1015.6
20260503235053 75 0 0.0 2.0 0.00 0.61 0.61 64 1015.7
20260503234624 76 0 0.0 2.0 0.00 0.61 0.61 63 1015.6
20260503234053 76 0 0.0 2.0 0.00 0.61 0.61 62 1015.7
20260503233552 76 0 0.0 3.0 0.00 0.61 0.61 61 1015.6
20260503233112 77 0 0.0 3.0 0.00 0.61 0.61 61 1015.6
20260503232550 77 77 0.0 2.0 0.00 0.61 0.61 61 1015.7
20260503232050 77 0 0.0 2.0 0.00 0.61 0.61 59 1015.7
20260503231552 77 0 0.0 3.0 0.00 0.61 0.61 60 1015.6
20260503231050 78 0 0.0 3.0 0.00 0.61 0.61 59 1015.5
20260503230551 78 0 1.0 3.0 0.00 0.61 0.61 59 1015.5
20260503230055 78 97 0.0 2.0 0.00 0.61 0.61 59 1015.5
20260503225550 78 0 0.0 2.0 0.00 0.63 0.61 58 1015.4
20260503225050 78 104 0.0 2.0 0.00 0.63 0.61 58 1015.4
20260503224552 78 117 0.0 5.0 0.00 0.63 0.61 59 1015.5
20260503224052 79 0 1.0 5.0 0.00 0.63 0.61 58 1015.4
20260503223551 79 51 0.0 3.0 0.00 0.63 0.61 56 1015.4
20260503223057 79 360 0.0 4.0 0.00 0.63 0.61 57 1015.5
20260503222552 79 0 1.0 4.0 0.00 0.63 0.61 57 1015.5
20260503222049 79 0 0.0 3.0 0.00 0.63 0.61 58 1015.5
20260503221600 80 0 0.0 3.0 0.00 0.63 0.61 55 1015.5
20260503221050 80 343 0.0 3.0 0.00 0.63 0.61 56 1015.4
20260503220551 80 55 0.0 3.0 0.00 0.63 0.61 56 1015.5
20260503220057 80 0 1.0 4.0 0.00 0.63 0.61 57 1015.8
20260503215550 80 78 0.0 4.0 0.00 0.66 0.61 57 1015.6
20260503215050 80 45 1.0 4.0 0.00 0.66 0.61 55 1015.6
20260503214551 80 52 0.0 3.0 0.00 0.66 0.61 57 1015.5
20260503214053 81 49 1.0 4.0 0.00 0.66 0.61 58 1015.6
20260503213550 80 58 0.0 4.0 0.00 0.66 0.61 57 1015.6
20260503213051 80 11 0.0 4.0 0.00 0.66 0.61 57 1015.7
20260503212550 80 0 1.0 7.0 0.00 0.66 0.61 57 1015.7
20260503212049 80 53 2.0 7.0 0.00 0.66 0.61 53 1015.6
20260503211553 81 37 2.0 7.0 0.00 0.66 0.61 55 1015.7
20260503211050 82 0 0.0 4.0 0.00 0.66 0.61 56 1015.7
20260503210551 81 93 0.0 4.0 0.00 0.66 0.61 58 1015.8
20260503210100 80 0 1.0 6.0 0.00 0.66 0.61 55 1015.7
20260503205550 80 10 1.0 6.0 0.00 0.69 0.61 57 1015.7
20260503205051 81 17 1.0 5.0 0.00 0.69 0.61 58 1015.7
20260503204557 81 26 1.0 5.0 0.00 0.69 0.61 57 1015.7
20260503204051 81 49 1.0 5.0 0.00 0.69 0.61 57 1015.7
20260503203551 81 129 1.0 4.0 0.00 0.69 0.61 58 1016.0
20260503203058 81 47 1.0 4.0 0.00 0.69 0.61 58 1016.0
20260503202551 81 68 1.0 8.0 0.00 0.69 0.61 58 1016.0
20260503202048 81 34 1.0 8.0 0.00 0.69 0.61 60 1016.0
20260503201559 80 66 1.0 4.0 0.00 0.69 0.61 58 1016.1
20260503201050 80 55 1.0 4.0 0.00 0.69 0.61 59 1016.3
20260503200550 81 47 0.0 6.0 0.00 0.69 0.61 62 1016.3
20260503200057 80 74 2.0 6.0 0.00 0.69 0.61 64 1016.4
20260503195556 79 64 2.0 6.0 0.00 1.28 0.61 62 1016.5
20260503195052 79 0 1.0 6.0 0.00 1.28 0.61 62 1016.6
20260503194559 80 48 1.0 5.0 0.00 1.28 0.61 60 1016.6
20260503194051 80 111 0.0 4.0 0.00 1.28 0.61 61 1016.8
20260503193551 80 116 1.0 6.0 0.00 1.28 0.61 62 1016.8
20260503193050 80 106 1.0 8.0 0.00 1.28 0.61 62 1016.7
20260503192549 79 130 2.0 8.0 0.00 1.28 0.61 65 1016.9
20260503192050 79 312 0.0 3.0 0.00 1.28 0.61 65 1016.9
20260503191554 78 360 0.0 4.0 0.00 1.28 0.61 67 1017.2
20260503191051 78 111 1.0 4.0 0.00 1.28 0.61 65 1017.2
20260503190554 77 89 1.0 4.0 0.00 1.28 0.61 67 1017.3
20260503190051 77 67 1.0 4.0 0.00 1.28 0.61 67 1017.5
20260503185550 76 105 0.0 6.0 0.00 1.93 0.61 66 1017.5
20260503185054 77 98 1.0 6.0 0.00 1.93 0.61 67 1017.5
20260503184552 78 77 1.0 4.0 0.00 1.93 0.61 66 1017.7
20260503184053 77 0 0.0 4.0 0.00 1.93 0.61 68 1017.6
20260503183551 78 93 1.0 4.0 0.00 1.93 0.61 66 1017.7
20260503183054 78 102 1.0 7.0 0.00 1.93 0.61 66 1017.7
20260503182551 77 0 1.0 7.0 0.00 1.93 0.61 64 1017.7
20260503182050 78 113 0.0 4.0 0.00 1.93 0.61 65 1017.8
20260503181553 79 94 1.0 6.0 0.00 1.93 0.61 64 1017.9
20260503181051 78 113 1.0 6.0 0.00 1.93 0.61 65 1017.9
20260503180551 79 76 1.0 6.0 0.00 1.93 0.61 65 1017.9
20260503180059 79 111 2.0 9.0 0.00 1.93 0.61 65 1017.9
20260503175550 81 96 2.0 9.0 0.00 1.93 0.61 67 1017.9
20260503175050 80 92 1.0 8.0 0.00 1.93 0.61 67 1017.9
20260503174557 79 67 1.0 8.0 0.00 1.93 0.61 66 1017.9
20260503174051 77 65 2.0 8.0 0.00 1.93 0.61 64 1018.0
20260503173551 78 74 1.0 8.0 0.00 1.93 0.61 68 1018.1